| time (UTC) | temp F | wind direction | speed MPH | gust MPH | rain 1hr in | rain 24hr in | rain mn in | humidity % | barometer mb |
| 20260905182105 | 68 | 290 | 9.0 | 0.0 | 0.00 | 0.00 | 0.00 | 45 | |
| 20260905172220 | 70 | 280 | 20.0 | 31.0 | 0.00 | 0.00 | 0.00 | 40 | |
| 20260905162524 | 72 | 270 | 22.0 | 0.0 | 0.00 | 0.00 | 0.00 | 37 | |
| 20260905151953 | 73 | 280 | 22.0 | 33.0 | 0.00 | 0.00 | 0.00 | 33 | |
| 20260905141941 | 73 | 290 | 26.0 | 0.0 | 0.00 | 0.00 | 0.00 | 33 | |
| 20260905132330 | 73 | 300 | 22.0 | 0.0 | 0.00 | 0.00 | 0.00 | 35 | |
| 20260905122228 | 72 | 270 | 20.0 | 31.0 | 0.00 | 0.00 | 0.00 | 40 | |
| 20260905112111 | 72 | 270 | 20.0 | 0.0 | 0.00 | 0.00 | 0.00 | 43 | |
| 20260905102531 | 66 | 260 | 16.0 | 0.0 | 0.00 | 0.00 | 0.00 | 55 | |
| 20260905092116 | 64 | 260 | 16.0 | 0.0 | 0.00 | 0.00 | 0.00 | 72 | |
| 20260905082127 | 59 | 280 | 12.0 | 0.0 | 0.00 | 0.00 | 0.00 | 82 | |
| 20260905072426 | 59 | 220 | 7.0 | 0.0 | 0.00 | 0.00 | 0.00 | 82 | |
| 20260905062608 | 59 | 310 | 12.0 | 0.0 | 0.00 | 0.00 | 0.00 | 77 | |
| 20260905062128 | 59 | 310 | 12.0 | 0.0 | 0.00 | 0.00 | 0.00 | 77 | |
| 20260905052125 | 59 | 300 | 12.0 | 0.0 | 0.00 | 0.00 | 0.00 | 77 | |
| 20260905042532 | 61 | 330 | 12.0 | 0.0 | 0.00 | 0.00 | 0.00 | 72 | |
| 20260905032126 | 64 | 320 | 16.0 | 0.0 | 0.00 | 0.00 | 0.00 | 59 | |
| 20260905022127 | 66 | 340 | 22.0 | 33.0 | 0.00 | 0.00 | 0.00 | 55 | |
| 20260905012427 | 72 | 280 | 14.0 | 45.0 | 0.00 | 0.00 | 0.00 | 53 | |
| 20260905002140 | 73 | 240 | 9.0 | 0.0 | 0.00 | 0.00 | 0.00 | 46 | |
| 20260904232211 | 73 | 250 | 7.0 | 0.0 | 0.00 | 0.00 | 0.00 | 46 | |
| 20260904222542 | 73 | 260 | 7.0 | 0.0 | 0.00 | 0.00 | 0.00 | 46 | |
| 20260904212125 | 73 | 240 | 9.0 | 0.0 | 0.00 | 0.00 | 0.00 | 43 | |
| 20260904202125 | 73 | 220 | 7.0 | 0.0 | 0.00 | 0.00 | 0.00 | 43 | |
| 20260904192412 | 75 | 240 | 7.0 | 0.0 | 0.00 | 0.00 | 0.00 | 41 |